Wind_Speed
12 12 12 12 11 11 11 11 10 10 9 9 8 8 7 7 6 6 6 6 6 7 7 8 8 9 10 12 13 15 14 9 5 6 7 4 3 5 4 8 12 12 14 12 11 10 9 8 7 7 7 5 3 1 0 1 3 4 3 2 2 2 3 3 2 3 3 5 8 9 9 7 8 7 5 5 5 7 7 6 6 7 7 11 18 22 23 21
13 12 12 12 12 11 11 11 11 10 9 9 9 8 8 7 7 6 6 6 7 7 8 9 9 10 11 12 13 14 12 6 8 7 5 5 2 4 4 10 13 14 14 11 12 10 9 8 8 8 6 4 2 1 1 1 2 3 3 2 3 4 4 3 4 3 1 3 7 9 9 7 8 9 7 7 7 8 8 8 8 10 12 15 20 23 22 20
13 12 12 12 12 11 11 11 11 10 10 9 9 8 8 7 7 6 7 6 7 7 8 9 10 11 11 12 13 13 9 7 7 2 3 4 2 3 6 13 15 15 10 8 9 8 7 5 8 8 5 3 2 1 2 1 1 2 3 2 5 4 3 4 3 2 2 2 7 9 8 7 8 9 8 7 8 8 7 8 10 12 14 16 18 21 21 19
13 12 12 12 12 12 11 11 11 10 10 10 9 9 8 8 7 7 7 7 8 8 8 9 10 11 11 12 13 10 6 8 3 6 6 4 2 4 10 14 16 14 6 4 6 6 6 5 8 7 5 3 2 2 2 1 1 2 2 3 5 2 1 5 3 2 1 2 6 8 9 8 9 9 8 8 7 6 6 7 9 12 16 18 18 19 20 19
14 13 12 12 12 11 11 10 10 10 10 10 10 9 9 9 9 8 8 8 8 8 9 9 10 10 10 12 11 5 5 5 4 6 4 3 4 7 11 14 15 11 4 5 5 5 7 7 8 7 6 4 2 3 1 2 2 2 1 3 3 2 2 4 3 2 0 3 6 9 10 9 8 8 9 9 5 1 3 7 9 12 16 18 18 18 18 17
14 13 12 12 11 11 10 10 9 9 9 9 9 10 10 10 10 10 10 9 9 8 8 9 9 9 10 12 7 2 5 0 5 4 3 3 5 9 11 14 14 10 6 6 5 5 7 8 8 6 5 4 2 2 2 3 2 3 1 2 2 2 3 3 3 3 2 5 7 9 9 9 9 8 9 9 3 3 3 7 9 12 15 17 18 17 16 16
14 13 12 12 11 11 10 9 9 9 8 9 9 10 11 12 12 12 11 10 9 9 8 8 8 9 10 9 4 5 3 5 6 3 3 4 7 9 11 14 12 9 8 6 6 6 6 8 8 5 5 4 1 2 4 1 3 3 1 2 2 2 3 5 5 5 5 6 7 7 7 10 11 7 8 8 4 4 5 8 10 13 16 17 16 15 15 15
15 13 12 11 11 11 10 10 9 8 8 9 10 10 12 13 14 13 12 10 9 8 7 8 8 8 10 6 4 5 4 8 6 3 4 5 7 9 11 12 10 8 8 7 6 6 6 8 7 4 4 2 2 3 4 2 3 2 1 2 2 2 4 5 5 5 5 5 4 7 9 8 5 4 8 7 5 6 8 9 12 14 15 15 14 14 14 13
16 15 13 12 11 10 10 9 9 9 9 10 10 11 13 14 14 14 13 10 8 7 7 7 6 8 9 5 7 3 6 6 4 5 5 5 7 10 10 9 9 8 7 6 6 6 6 6 5 2 4 2 2 4 4 4 1 1 1 2 3 4 4 4 4 5 4 3 6 9 8 6 7 2 7 6 5 7 9 11 12 13 14 14 13 13 13 13
17 16 14 13 12 10 10 9 9 10 10 11 12 13 15 15 15 14 12 8 7 6 5 5 6 7 6 5 8 1 6 4 3 5 6 5 6 10 9 7 8 8 7 7 7 7 5 2 1 1 5 2 2 4 3 4 1 2 2 3 2 4 4 4 3 2 1 2 7 7 7 9 8 4 4 5 6 9 10 12 12 13 14 14 13 12 12 12
17 17 16 14 13 11 10 10 10 11 11 13 14 15 16 14 13 11 8 6 5 5 4 4 4 5 5 8 6 3 5 2 2 4 6 6 6 8 7 7 8 8 7 7 7 6 3 1 2 2 3 1 2 2 1 1 1 3 3 3 3 1 4 5 5 4 3 1 3 8 10 9 5 2 1 5 8 10 11 12 12 12 12 13 13 11 10 11
18 17 16 15 14 12 11 11 11 12 13 14 15 15 14 11 9 6 4 3 3 4 3 3 3 4 5 7 2 5 4 2 2 4 6 7 6 4 5 7 7 6 6 6 7 6 3 1 3 4 2 2 3 1 1 1 2 3 4 1 3 3 4 8 5 4 4 1 6 11 9 8 5 2 3 7 9 9 10 11 11 12 11 12 12 10 8 10
18 17 16 15 14 13 12 12 12 13 14 15 15 13 10 8 6 3 1 1 2 2 2 3 3 3 5 1 5 3 2 1 0 3 6 6 5 3 3 5 5 5 4 3 5 7 5 2 5 5 3 5 2 2 1 3 3 3 4 3 2 4 4 9 5 6 6 6 11 9 4 7 8 5 6 9 9 9 10 11 11 11 10 10 10 10 9 9
18 18 17 15 14 14 13 12 13 14 14 15 13 9 8 7 3 3 3 1 0 1 1 3 4 2 4 3 5 1 0 0 1 3 6 6 4 4 4 4 4 4 3 1 3 4 5 4 6 5 3 5 1 2 5 5 4 4 3 3 3 1 4 7 5 7 7 7 11 4 0 7 8 6 7 7 9 10 10 10 10 10 10 10 10 10 10 9
19 19 17 16 15 14 13 13 13 14 14 14 11 8 7 5 3 5 5 3 1 1 2 3 3 3 3 5 4 2 2 2 3 2 5 6 5 4 6 5 4 4 3 1 2 3 3 4 6 5 3 2 4 6 6 4 4 4 3 2 2 2 4 5 5 6 7 8 7 2 2 6 5 5 6 6 8 10 9 10 10 10 10 10 10 10 10 10
19 19 18 16 14 13 13 13 13 13 13 12 8 7 7 4 5 5 5 5 2 2 2 2 1 6 2 6 3 1 1 2 3 2 3 5 3 3 8 7 5 4 3 2 2 3 4 5 4 3 2 4 6 6 4 4 5 4 3 2 3 2 2 4 5 6 8 7 6 2 3 5 2 5 7 7 8 9 9 9 10 10 11 10 10 9 9 10
19 19 19 16 14 13 13 12 12 12 12 10 6 6 7 4 4 4 5 5 2 2 1 3 3 6 1 4 4 3 3 3 4 2 2 3 2 5 8 7 6 6 5 4 4 5 5 5 3 3 5 5 4 4 5 6 4 3 1 2 2 3 2 3 3 4 5 4 3 3 3 6 5 8 9 9 9 9 9 9 10 10 10 10 9 9 9 9
19 20 19 17 14 13 12 12 12 11 11 9 4 4 6 3 2 2 2 3 2 1 3 3 4 4 3 5 1 2 3 2 2 1 2 4 4 5 5 4 7 8 8 6 5 6 5 4 4 4 5 4 3 6 6 2 3 2 2 2 0 2 3 4 4 3 3 2 1 1 2 8 8 8 9 10 10 10 9 9 9 10 10 10 9 10 10 10
19 20 19 17 13 12 11 11 10 9 11 9 4 4 3 1 0 1 3 3 1 1 0 0 2 2 4 4 2 2 0 1 1 2 3 4 5 5 4 5 8 9 8 8 6 6 5 4 5 5 6 6 6 6 3 6 7 5 3 2 2 1 3 5 4 3 1 3 2 2 1 4 6 7 9 11 11 11 10 9 8 8 9 9 9 9 9 10
19 19 19 17 13 11 10 10 8 8 9 9 5 4 3 2 2 2 4 5 1 4 3 3 3 2 2 3 2 0 2 3 3 3 5 4 6 6 6 6 7 7 7 5 6 4 4 5 7 5 3 3 4 3 4 5 5 5 2 2 2 1 2 4 4 4 2 4 1 0 3 2 4 6 8 10 11 11 11 10 9 9 9 9 10 10 10 10
19 19 19 17 13 10 9 8 6 6 7 8 5 3 2 5 3 2 2 2 2 2 3 3 3 4 3 2 2 2 2 4 4 4 4 4 6 6 5 6 7 7 4 2 3 4 4 7 5 3 1 2 1 2 3 4 4 5 5 2 2 2 2 5 4 4 1 3 1 1 5 4 5 6 7 9 11 12 12 12 11 11 11 9 10 11 10 9
19 19 19 17 13 9 9 7 4 4 5 5 4 2 5 7 5 3 4 2 4 1 2 0 2 3 1 2 1 3 4 4 6 5 4 5 7 5 4 6 7 4 5 4 3 4 6 8 4 4 2 1 2 2 5 6 6 6 5 4 3 1 3 4 3 4 2 2 3 3 5 4 5 7 9 10 10 10 11 12 11 12 11 10 10 10 10 10
20 20 19 17 13 9 8 6 3 3 4 2 3 5 4 5 6 4 5 4 3 4 2 1 2 0 2 2 2 5 5 2 4 6 5 6 5 2 3 5 4 3 7 7 5 4 4 3 3 5 5 5 5 4 6 6 7 7 6 6 3 1 2 1 2 3 2 3 4 5 6 4 5 8 9 10 9 8 10 11 10 10 11 11 11 10 10 11
20 20 20 17 13 9 7 5 3 2 3 2 2 4 3 7 6 4 5 4 2 3 1 2 2 1 3 3 2 5 2 2 0 6 6 7 2 2 2 2 3 5 5 5 5 5 2 4 2 4 7 9 8 7 7 7 7 8 8 8 4 1 4 3 2 3 4 4 4 6 6 3 5 8 8 9 10 9 10 11 11 11 11 11 11 11 11 11
21 21 20 18 14 9 7 4 2 1 3 3 2 1 5 10 6 5 5 4 3 4 3 3 1 2 3 2 2 3 1 3 1 4 5 5 1 1 1 1 3 2 4 4 5 5 1 5 3 5 7 9 9 7 9 8 7 7 9 9 7 4 4 2 1 4 5 4 2 5 5 2 5 6 7 9 10 10 11 12 12 12 12 11 11 11 12 11
21 21 20 18 14 9 5 3 3 3 5 3 2 1 7 12 4 5 4 4 5 4 3 4 2 2 2 1 2 3 4 4 3 2 3 3 2 3 1 2 2 2 3 3 4 1 4 5 4 6 6 8 8 8 8 7 8 6 3 4 5 4 4 3 4 6 5 1 1 3 5 2 3 4 5 8 10 10 11 12 13 12 12 12 11 11 12 12
22 22 20 17 15 10 4 1 1 5 4 2 1 3 10 11 3 6 4 4 5 1 1 3 1 1 1 1 0 4 1 6 5 3 3 3 2 3 3 2 1 2 2 3 3 2 4 5 6 6 6 7 7 6 6 8 9 3 4 2 5 4 4 4 5 6 4 5 2 5 4 5 2 4 5 8 10 10 11 12 13 12 13 13 13 13 13 13
22 22 21 16 14 11 6 4 4 4 1 2 1 6 11 6 6 5 6 2 4 0 1 3 2 1 1 1 3 4 3 3 3 5 3 4 4 4 4 1 1 0 1 5 1 5 3 4 5 5 6 5 3 1 2 8 9 2 2 4 5 4 4 3 5 5 3 6 5 4 3 5 2 5 4 4 6 7 9 11 12 13 14 14 14 15 14 13
23 22 21 17 13 10 7 5 5 4 1 1 3 7 8 2 6 4 5 1 2 1 1 2 2 3 3 3 3 2 1 1 1 4 4 5 4 5 3 1 4 3 2 6 3 4 2 0 1 4 4 1 2 3 1 8 7 2 2 3 3 4 4 3 5 4 3 6 5 1 4 5 0 4 2 1 2 2 4 7 9 12 14 14 14 15 15 14
23 22 20 16 10 6 5 6 8 7 4 4 4 6 3 4 4 6 4 1 1 3 2 1 2 2 3 5 5 3 2 1 2 3 5 4 4 5 2 0 5 5 3 4 2 3 4 2 1 3 2 4 2 1 2 8 5 3 4 4 4 5 4 3 4 3 5 6 3 2 4 6 2 2 2 2 1 3 2 1 3 7 12 15 15 15 15 14
22 21 19 15 8 4 4 4 7 9 6 3 3 4 6 4 4 5 2 1 1 4 3 2 2 1 3 3 3 4 4 3 2 3 5 4 5 6 4 4 4 5 4 5 3 4 6 6 4 3 2 3 2 3 2 7 6 6 6 4 4 4 3 5 3 4 7 4 1 4 5 7 5 1 3 3 3 5 4 4 4 5 8 11 13 14 15 14
22 20 17 14 9 8 8 2 5 7 5 2 3 5 5 4 5 4 2 2 2 3 2 2 2 1 2 3 2 4 3 3 2 2 1 2 2 2 1 2 1 4 4 3 3 5 6 4 4 5 2 3 3 4 4 6 7 7 5 4 6 5 4 6 4 5 8 4 1 5 6 5 4 2 5 5 6 6 5 6 6 6 7 8 11 14 14 14
21 19 16 12 10 9 10 7 4 4 3 2 5 5 4 5 5 1 3 4 1 2 1 1 1 1 3 5 5 4 2 2 2 1 1 1 1 3 2 4 4 5 1 1 2 3 5 6 4 4 4 2 5 3 3 5 6 7 5 5 7 5 5 7 6 6 7 5 2 3 4 5 3 3 6 7 7 8 8 8 8 9 9 8 10 12 13 13
21 18 14 10 9 9 10 10 9 6 4 5 6 5 6 6 2 1 3 4 2 2 2 1 1 3 3 2 4 4 3 3 2 3 4 3 2 2 4 4 3 5 3 2 2 2 2 4 3 2 1 3 4 4 4 1 5 7 5 5 7 6 6 7 6 7 7 6 3 0 3 4 2 1 4 8 7 9 10 9 8 10 9 6 8 10 11 12
21 15 10 7 7 7 8 9 9 7 6 6 6 5 7 6 3 4 4 3 3 3 4 2 3 5 5 3 4 3 2 2 4 4 3 2 1 2 2 4 5 4 4 3 1 1 4 1 6 4 3 4 4 3 4 5 5 5 4 6 5 5 6 4 4 5 5 5 4 3 4 1 1 2 3 7 7 9 11 11 10 9 8 1 7 7 7 9
17 10 5 2 2 3 7 9 10 9 7 6 6 7 6 3 1 3 2 2 2 2 3 5 5 6 5 5 6 5 2 1 5 5 2 1 0 2 2 4 5 4 5 4 1 0 4 2 5 1 2 2 4 2 1 5 3 2 4 5 1 4 7 5 3 2 3 5 3 4 4 1 1 3 2 6 8 11 12 13 11 11 9 3 5 6 6 6
16 7 1 2 1 2 6 10 12 10 7 6 7 6 3 1 0 2 3 1 1 1 4 5 4 4 5 5 6 7 6 4 5 4 3 3 2 2 2 3 4 4 5 4 2 3 4 1 5 1 2 5 1 2 1 1 4 4 4 2 1 3 6 5 4 4 5 6 4 5 6 4 3 3 3 7 10 12 13 13 12 11 10 7 4 5 6 5
14 5 2 2 1 3 6 11 13 9 6 6 7 5 3 2 2 2 3 1 1 3 6 5 2 2 5 4 5 7 6 5 5 4 2 3 3 2 2 2 4 4 4 5 2 3 4 3 5 3 1 2 3 5 3 3 1 6 2 2 2 5 5 4 5 5 6 7 5 6 8 6 2 0 4 9 10 11 12 12 10 9 10 9 7 3 3 6
8 5 3 4 4 4 9 13 12 7 5 6 8 5 3 3 4 3 2 2 2 4 6 4 1 3 4 4 3 6 6 5 4 3 3 2 2 2 1 0 2 4 3 5 3 2 3 5 2 5 1 2 4 5 5 2 2 2 2 3 3 4 4 4 5 4 5 7 7 6 8 4 2 2 4 7 9 11 11 10 8 7 8 8 8 7 3 3
5 4 2 6 4 7 13 13 9 6 6 6 5 3 3 4 5 4 3 3 3 3 3 3 4 4 4 4 3 4 5 5 3 3 2 2 3 3 2 1 0 2 2 2 2 1 1 3 2 3 2 4 3 0 3 3 2 4 4 4 4 3 3 4 4 4 5 6 6 6 7 3 4 2 3 6 7 9 9 8 7 7 7 7 7 8 6 3
5 3 2 6 4 14 12 8 7 5 7 6 4 3 3 3 5 6 4 4 4 2 2 3 4 4 4 5 4 4 5 5 4 3 3 3 3 2 3 1 1 0 2 3 1 2 2 2 4 3 3 3 3 5 3 2 3 4 4 4 4 3 4 5 6 5 4 6 5 6 7 0 5 1 3 5 6 7 7 9 7 7 8 7 7 6 6 6
5 2 3 4 8 13 5 7 6 3 6 5 2 3 3 1 4 5 5 5 5 3 2 4 4 4 5 4 3 5 5 4 4 4 3 3 3 1 4 1 1 2 4 1 3 3 3 3 4 4 3 2 5 4 1 2 3 4 3 3 5 4 5 6 7 5 5 6 5 6 7 0 5 4 3 5 7 7 6 7 7 7 7 8 8 7 5 6
3 1 4 3 6 6 5 7 6 4 6 3 1 2 3 3 5 4 5 6 5 4 4 5 5 5 5 3 3 6 6 3 2 3 2 3 2 4 5 2 3 3 3 1 3 2 2 3 3 2 1 1 4 4 2 0 3 4 2 2 4 5 5 6 6 5 6 7 5 6 7 1 4 4 4 7 8 6 5 6 7 7 7 7 7 7 6 6
3 2 3 3 5 6 6 6 6 6 7 5 4 6 5 4 5 5 6 7 5 5 6 6 5 4 3 4 5 6 6 3 3 3 2 3 4 6 4 1 3 4 1 3 2 0 2 1 2 4 3 4 5 5 5 4 4 5 2 1 4 5 5 5 4 4 6 7 7 9 7 1 3 2 4 8 8 6 5 5 5 6 7 7 6 6 6 6
3 2 2 3 5 7 6 4 4 5 7 7 8 9 7 5 5 5 5 5 5 5 6 5 5 4 4 5 5 5 5 4 3 3 3 3 5 5 2 1 3 3 3 5 3 2 2 1 2 5 5 4 3 2 2 2 3 4 3 2 3 5 6 5 4 5 6 5 7 9 5 3 3 2 5 8 7 5 5 5 6 7 7 7 7 6 5 5
3 1 2 4 6 6 5 3 5 6 5 7 8 8 9 8 6 5 5 5 6 6 5 3 5 6 6 7 7 7 7 5 3 3 5 5 6 5 3 3 2 2 6 3 3 3 2 2 3 5 6 5 4 4 4 3 4 5 4 4 4 4 4 5 6 6 5 4 6 4 2 5 6 4 6 7 6 4 5 6 7 8 8 8 8 7 6 6
3 1 1 2 3 5 6 5 6 6 4 5 5 6 9 9 6 6 5 5 4 6 6 4 6 9 8 9 9 6 7 6 4 5 6 5 5 6 5 4 3 5 5 3 4 3 3 3 4 5 5 5 5 4 3 3 4 5 4 5 5 3 3 4 5 5 5 6 4 1 3 5 7 6 6 6 6 5 7 8 8 8 8 8 8 9 8 8
2 2 1 2 2 4 5 4 5 6 6 6 4 4 9 11 9 7 5 4 4 7 7 6 9 11 10 10 8 5 7 7 6 6 6 5 6 6 6 6 5 7 7 6 3 3 5 2 3 4 5 4 4 4 3 3 3 3 4 5 5 6 6 6 5 4 3 4 1 3 2 3 6 6 6 7 6 7 9 9 8 9 9 9 10 10 11 11
2 2 1 1 3 3 3 2 2 6 8 6 5 6 8 10 10 6 3 4 6 8 9 8 11 13 12 10 8 5 7 7 6 7 7 6 7 6 6 5 5 6 8 6 4 2 5 1 3 4 5 4 3 3 4 4 4 3 3 3 4 4 4 3 2 2 1 2 4 4 3 4 5 5 7 6 5 6 8 8 10 10 9 10 11 11 11 11
3 3 2 2 4 4 4 3 3 6 6 5 5 7 9 10 9 6 3 5 7 8 10 11 12 13 12 10 9 8 8 8 6 7 9 9 7 6 5 3 3 6 7 5 4 3 3 1 3 4 6 5 3 3 4 5 5 5 4 3 3 1 1 1 2 3 3 3 4 5 6 5 4 5 6 6 5 6 7 9 10 9 8 10 12 12 11 11
4 3 3 4 4 2 4 4 4 5 5 6 6 6 8 10 7 3 4 6 7 6 8 12 12 10 8 10 11 10 9 9 7 6 9 10 7 6 6 3 3 6 6 4 4 4 4 2 3 4 6 3 3 3 5 5 6 8 7 6 6 4 1 1 2 1 2 1 4 5 4 4 4 4 5 7 7 7 8 8 8 7 7 10 12 13 11 10
3 2 2 5 3 2 3 4 5 5 5 4 4 4 6 6 3 2 4 5 5 6 4 6 8 7 7 11 13 10 7 7 4 1 5 6 4 4 5 4 5 5 4 4 4 3 3 3 2 3 4 1 3 2 4 5 7 7 4 4 4 3 2 1 2 1 1 0 2 3 1 5 5 5 5 6 6 5 6 6 6 7 6 10 12 12 11 11
Wind_Direction
4 5 8 9 10 15 17 16 15 17 17 18 21 20 19 18 12 5 359 348 344 342 338 336 332 334 331 330 334 335 339 338 298 244 229 279 279 238 230 183 182 169 161 164 170 174 176 190 183 190 209 208 228 252 215 267 277 265 258 275 86 90 71 51 23 86 163 168 139 158 176 169 150 143 135 146 137 124 130 119 108 99 92 107 119 130 135 140
7 7 6 6 7 11 15 16 17 20 21 21 21 17 15 12 6 0 352 344 340 336 334 329 327 330 326 329 333 334 343 320 262 236 243 297 254 220 198 173 177 164 157 173 183 188 194 188 179 192 216 217 180 168 246 201 254 282 300 317 56 50 65 50 5 57 124 153 142 166 180 181 161 149 161 167 149 150 144 137 133 115 112 120 128 134 137 143
10 9 9 9 9 8 10 13 14 18 20 18 16 13 11 5 360 352 342 338 333 331 329 327 327 325 324 329 330 336 341 283 243 179 12 337 203 194 167 166 167 159 160 189 192 206 219 198 186 198 224 230 173 206 255 172 244 305 305 325 70 45 61 78 29 33 42 113 160 173 176 184 162 153 175 177 161 169 162 150 149 134 133 137 138 140 142 148
10 11 12 13 12 10 8 10 12 13 12 9 6 5 4 357 351 342 334 326 323 324 323 327 327 322 325 329 329 339 313 257 186 80 24 10 137 155 157 160 160 158 161 184 191 224 236 208 194 212 241 233 173 233 262 131 288 312 310 353 65 23 15 80 37 24 51 193 186 172 173 179 162 161 178 174 166 175 176 165 156 146 145 145 146 147 148 151
11 11 12 11 10 9 7 8 11 10 7 2 357 356 353 347 342 336 329 322 322 321 319 326 327 325 328 328 333 343 279 243 105 67 22 41 118 136 152 159 157 157 163 172 183 211 214 203 199 220 242 243 206 219 220 88 297 286 340 7 40 326 342 59 15 353 299 216 190 179 181 171 160 172 184 177 163 124 163 164 152 145 148 150 151 151 152 153
11 10 9 8 5 5 5 8 8 5 1 353 347 344 339 335 333 330 326 322 322 320 321 326 327 330 331 331 343 299 264 301 80 59 46 85 133 135 150 160 158 159 169 174 179 192 199 201 206 221 230 243 253 259 27 74 270 275 100 48 37 346 333 3 337 298 260 220 198 192 178 163 169 177 185 180 123 46 126 149 146 141 148 152 152 154 156 156
11 9 7 5 2 2 2 4 4 359 351 344 338 332 328 325 324 324 323 321 321 322 323 325 328 334 336 340 336 242 231 72 68 67 81 123 148 142 149 158 161 167 179 184 182 195 200 205 215 229 234 243 270 319 349 20 234 274 3 55 43 9 325 324 305 281 259 235 208 184 166 172 181 174 178 173 109 87 123 138 142 140 147 152 155 159 156 156
11 8 5 3 1 360 358 358 356 349 343 337 330 323 320 318 317 318 317 317 317 319 323 326 333 336 344 347 272 223 120 66 59 88 99 129 158 158 151 154 167 177 195 198 189 203 204 211 220 227 239 258 2 321 328 290 210 243 332 50 4 341 343 331 303 281 257 241 203 175 172 167 165 158 166 154 110 125 135 139 142 141 150 155 159 160 156 157
10 8 5 3 1 358 355 352 347 342 338 332 325 320 317 313 312 311 311 312 309 316 322 325 333 339 350 328 261 216 88 51 53 99 108 128 162 169 163 164 180 190 202 202 204 212 206 215 212 240 286 325 338 312 319 285 216 80 40 73 2 350 2 347 311 281 256 221 196 187 164 98 31 40 155 144 128 141 142 142 144 148 154 157 160 160 159 160
10 8 5 3 1 357 352 347 342 338 333 329 325 321 319 315 311 309 307 303 299 306 312 322 338 343 344 289 266 197 91 58 69 108 133 143 160 173 184 187 186 197 201 194 201 208 211 237 169 324 296 289 300 308 315 296 24 90 132 100 41 12 23 10 356 316 260 211 197 173 118 79 32 12 149 155 152 150 149 145 147 154 158 158 159 160 163 162
8 8 5 3 359 355 350 346 343 337 334 331 327 325 324 322 317 312 306 294 289 293 303 321 335 343 309 270 281 81 103 76 84 128 144 147 157 172 194 195 190 203 198 188 193 204 214 351 357 273 266 277 275 285 336 331 94 149 165 121 115 85 42 35 19 39 82 296 170 123 99 92 72 24 184 184 168 161 155 148 151 157 158 160 158 159 168 165
7 7 5 3 358 354 350 348 344 339 337 332 330 331 332 334 330 323 311 280 276 282 301 317 328 347 285 261 357 72 111 101 119 144 146 154 163 167 192 194 198 207 201 196 188 195 205 59 307 278 322 313 255 241 87 163 191 180 199 201 153 162 44 38 27 51 85 108 131 126 112 119 144 146 184 190 173 167 162 150 153 157 157 161 159 159 171 167
6 5 5 2 357 353 350 349 346 342 338 334 336 340 345 349 342 346 72 194 272 284 297 326 344 326 269 267 68 98 152 94 166 157 159 166 162 143 166 184 200 210 208 201 171 187 214 261 299 305 323 284 271 79 134 194 215 213 219 256 208 188 42 36 47 80 74 109 142 155 137 139 159 152 170 185 169 169 169 155 156 157 159 163 163 163 169 170
5 5 4 1 356 353 350 349 348 343 338 338 343 352 0 357 2 86 93 76 327 314 298 346 10 284 260 70 89 201 227 355 246 178 176 180 167 138 137 165 180 188 197 167 130 179 218 241 275 279 260 272 305 141 200 204 212 236 234 252 288 312 51 41 57 84 75 118 155 194 164 145 160 152 162 177 170 178 174 159 160 160 162 165 168 170 168 173
5 5 3 360 355 351 349 349 349 343 340 345 349 3 13 16 78 108 88 60 66 46 354 346 9 255 241 95 111 305 5 158 159 165 187 190 191 150 138 153 156 162 188 186 131 158 207 227 249 248 194 214 226 206 218 226 218 241 263 280 343 33 96 83 62 75 94 135 173 272 65 133 163 167 159 174 184 188 178 166 166 164 166 168 172 178 172 173
4 3 3 359 354 351 349 348 349 345 343 349 351 4 20 47 102 107 73 58 84 67 14 321 284 257 295 80 134 199 97 125 99 106 178 193 227 127 132 146 145 159 177 182 177 179 211 225 245 265 198 193 221 226 240 243 220 225 272 332 22 45 115 108 75 88 116 150 188 208 115 111 165 197 172 180 192 194 187 175 172 170 169 171 175 180 178 173
2 2 3 358 354 349 348 348 348 347 346 351 354 5 23 60 110 103 64 51 73 81 312 285 274 263 332 100 179 155 94 66 65 71 137 180 204 126 143 152 147 162 170 171 191 194 199 209 209 218 220 216 229 243 246 242 222 201 258 343 44 51 66 110 101 115 139 179 190 190 154 116 154 195 176 180 190 197 199 182 179 178 173 175 177 181 182 179
0 0 1 358 354 348 346 348 347 349 350 353 352 357 17 51 90 77 40 43 72 181 232 251 262 255 113 116 163 82 71 50 71 98 127 155 165 155 170 160 149 160 166 167 181 196 194 197 208 212 212 209 216 230 239 288 356 358 346 319 44 84 70 70 91 150 182 224 178 206 161 122 144 176 173 180 186 198 205 191 188 184 178 180 180 182 184 185
358 358 359 357 353 346 346 347 348 354 355 356 344 322 345 9 308 257 228 218 222 258 259 30 293 322 73 85 60 59 78 314 228 184 140 146 165 174 170 154 160 169 178 176 175 195 204 193 209 224 215 202 210 237 288 9 3 348 353 307 320 39 71 60 80 135 241 265 216 240 232 137 150 163 170 179 183 198 207 199 197 192 185 184 185 187 185 189
356 356 356 356 353 346 344 344 350 1 0 1 339 281 287 292 229 170 205 221 292 353 356 14 350 328 54 79 57 28 199 220 222 165 139 155 175 173 160 165 180 189 199 185 158 172 222 218 210 221 227 193 196 245 321 340 326 316 302 250 307 353 79 65 77 88 355 290 234 353 279 226 181 168 171 177 181 196 203 200 200 197 194 190 190 191 185 191
354 354 354 355 353 343 340 343 352 3 12 13 344 276 12 5 339 26 346 236 105 3 315 3 329 296 323 335 335 318 213 189 182 148 138 169 204 197 161 178 198 189 182 146 128 148 220 239 218 192 44 51 160 196 251 269 277 280 280 270 242 214 100 65 63 84 63 290 13 354 277 250 202 182 175 179 185 194 198 199 197 197 198 195 196 193 187 191
352 352 352 352 351 342 336 340 346 2 19 16 354 19 49 16 340 324 308 269 124 136 272 321 277 279 291 274 270 267 249 169 154 153 154 192 219 217 159 191 214 177 151 175 189 171 208 237 211 161 150 168 199 204 227 244 252 252 260 267 244 176 110 94 79 87 113 280 327 324 292 265 200 186 184 188 193 197 197 199 199 198 199 197 198 194 189 192
350 350 349 349 350 341 330 332 328 354 13 334 354 36 47 3 334 265 254 274 122 143 207 175 272 71 124 133 135 225 241 143 148 138 158 211 215 218 196 187 196 160 169 198 221 214 214 223 180 181 190 205 213 215 232 242 243 242 247 253 240 163 218 198 120 124 158 257 299 306 289 269 203 187 190 195 198 197 194 199 201 203 204 202 201 196 193 195
349 349 347 347 345 336 327 327 298 330 2 284 321 40 15 347 334 241 240 277 129 134 129 50 337 22 66 76 148 231 235 67 198 120 156 223 190 168 225 144 169 171 166 198 230 247 270 65 90 201 199 218 227 216 229 241 238 235 238 254 263 226 273 316 94 172 200 221 264 288 274 238 193 194 194 190 192 191 188 195 201 204 208 208 205 199 196 199
347 346 345 344 342 336 321 303 220 273 316 249 210 41 337 342 330 226 248 260 146 132 155 161 197 81 65 117 183 260 194 130 5 98 158 237 261 183 166 113 238 158 124 181 225 244 146 89 144 198 192 217 231 224 227 237 250 241 227 239 257 281 290 317 288 252 243 204 213 298 291 169 152 188 192 176 182 190 187 192 199 200 203 207 209 205 200 200
344 344 344 341 338 332 303 245 172 267 285 229 168 291 325 334 309 197 252 243 148 124 164 170 177 116 101 168 154 262 224 139 67 79 176 234 294 279 208 168 245 51 110 215 248 249 109 121 192 204 194 207 222 235 226 226 254 251 198 212 235 259 270 254 265 270 277 324 117 275 294 281 152 163 170 166 176 190 192 199 204 201 202 206 208 206 202 202
342 342 339 338 337 329 304 251 237 265 266 142 151 306 331 328 217 176 251 227 136 95 190 138 98 98 90 60 160 265 223 111 124 146 178 216 204 258 261 189 187 118 159 250 244 143 126 159 195 205 211 210 217 233 203 208 246 255 90 145 215 222 239 252 266 262 297 335 256 208 267 283 229 117 124 165 176 186 197 206 207 205 207 208 210 207 202 204
340 339 335 335 334 323 305 292 283 263 270 68 273 316 334 319 178 190 260 211 105 14 209 102 80 133 168 208 248 275 44 99 184 136 138 222 209 246 255 176 316 76 190 276 266 112 139 193 184 201 220 218 223 275 153 208 240 317 29 240 226 217 223 252 271 265 322 318 266 185 206 265 233 94 94 178 184 186 202 212 211 211 213 211 212 211 204 203
338 337 331 329 327 316 296 271 260 256 249 239 284 325 331 238 180 235 262 148 98 191 138 87 140 173 203 208 212 236 107 232 299 98 151 213 216 255 281 71 302 294 217 276 315 83 90 270 219 240 247 322 9 34 107 224 236 319 291 231 185 185 198 231 260 274 308 286 277 212 218 257 237 98 92 196 185 156 190 210 209 211 217 216 214 214 210 203
336 334 328 323 325 319 299 263 240 242 230 227 299 330 282 210 219 244 223 145 125 148 143 203 174 167 214 205 174 173 199 147 72 135 182 196 190 220 283 331 266 270 199 221 279 60 91 123 231 250 329 2 360 79 214 229 221 179 195 184 168 179 188 219 242 271 273 257 275 317 263 260 248 115 86 100 49 15 12 260 222 214 220 218 213 213 213 207
335 332 323 315 309 270 267 260 216 220 220 227 313 290 236 221 249 249 195 124 149 149 177 192 145 170 224 230 165 154 179 143 135 219 188 175 187 188 209 209 218 241 204 181 172 125 138 160 168 149 41 346 205 149 191 215 196 195 204 188 190 188 190 224 221 237 255 249 339 328 300 270 253 122 57 43 20 7 349 319 304 262 242 228 219 215 214 212
333 328 317 303 286 241 236 233 153 180 195 208 266 253 241 224 228 236 135 159 191 165 182 135 110 202 214 224 163 143 174 140 131 272 172 167 175 133 290 305 266 242 211 159 162 161 158 136 112 152 153 327 239 175 156 185 195 213 214 201 215 206 202 230 225 224 242 229 260 323 320 280 251 100 54 20 12 14 358 323 306 282 264 243 230 220 211 212
333 326 314 295 270 238 234 235 196 188 191 218 244 245 248 237 222 188 146 178 142 75 103 52 41 284 217 197 159 148 190 120 124 178 143 260 230 112 81 27 335 287 298 41 221 193 160 131 116 176 163 357 293 246 165 168 198 218 210 215 231 223 216 230 221 221 237 212 163 354 317 262 238 103 51 25 16 12 1 341 326 302 274 243 230 222 207 208
333 325 313 290 263 242 231 231 226 225 217 221 235 227 230 235 205 104 186 173 80 85 156 230 232 197 210 194 141 166 203 126 140 199 184 221 237 136 115 79 9 306 298 275 250 292 248 142 88 5 45 8 329 326 334 279 208 212 207 227 245 250 245 246 236 228 235 223 189 16 260 263 262 130 28 16 22 18 6 0 348 319 293 237 212 216 204 202
335 329 313 287 265 241 222 220 211 200 205 220 231 220 223 230 186 181 192 138 120 172 164 188 236 202 181 147 138 183 272 120 165 203 206 226 304 51 63 62 33 342 299 277 111 328 280 79 65 31 14 354 350 6 322 284 225 195 205 229 247 273 266 273 293 277 264 252 233 218 229 318 31 150 33 6 21 28 14 10 7 348 339 234 178 185 200 205
340 335 312 276 254 226 211 210 197 192 213 226 222 220 224 247 218 181 159 107 152 193 182 189 216 216 186 164 162 174 237 203 184 197 193 209 67 57 50 50 29 350 327 318 14 262 257 116 85 113 148 53 357 14 287 278 269 165 205 229 264 323 290 279 283 263 260 262 236 217 233 17 102 173 78 16 22 29 20 16 17 12 8 16 147 152 191 208
338 323 272 128 130 225 201 197 191 197 222 228 223 232 229 229 339 131 117 113 157 242 242 209 195 229 208 181 173 172 181 189 197 210 186 171 163 104 107 76 32 356 352 326 331 19 306 181 110 165 169 111 38 305 156 296 296 262 227 215 152 287 275 272 262 225 229 249 227 206 228 236 222 200 58 27 23 22 17 17 18 24 22 20 79 135 172 164
329 291 195 83 336 247 197 181 183 198 224 224 225 243 250 196 145 118 126 153 204 217 237 235 192 233 231 210 170 160 181 188 179 201 206 179 157 113 152 111 63 32 2 307 288 49 312 269 133 145 261 117 183 239 207 131 322 301 306 135 212 247 232 221 250 250 242 251 241 212 219 234 252 327 31 20 18 17 13 8 8 20 21 12 16 37 150 152
303 246 175 39 338 221 176 170 179 206 221 217 221 220 221 181 142 138 166 189 232 220 228 239 220 220 233 240 176 155 192 212 173 187 215 189 151 133 199 231 89 80 31 323 313 46 309 287 158 139 136 292 216 229 244 179 144 278 238 194 233 277 274 244 247 263 266 262 259 241 226 216 59 43 24 15 15 17 10 354 352 7 6 359 359 357 357 172
277 243 130 25 349 168 157 165 189 221 210 217 237 197 172 177 161 166 197 218 233 231 238 223 204 212 209 220 225 176 198 223 205 213 215 166 163 152 143 241 144 84 45 318 315 359 273 283 288 132 161 247 230 345 316 298 257 245 231 230 230 238 275 273 250 249 266 266 264 259 248 193 97 70 27 24 20 24 7 339 343 356 347 351 357 349 345 326
268 240 101 33 110 146 149 182 204 218 210 223 252 190 159 183 179 171 179 220 241 253 296 258 229 225 200 200 211 186 194 215 212 227 215 184 209 182 111 60 317 348 245 219 146 3 321 275 291 290 245 232 104 63 15 348 309 283 262 263 263 251 256 257 245 232 244 262 263 264 266 146 91 57 28 36 28 31 5 338 350 357 341 346 353 345 346 338
255 240 72 60 142 149 177 217 191 214 224 220 234 184 151 183 203 182 171 199 224 221 237 247 241 231 215 211 198 188 203 212 209 225 222 199 218 114 92 81 297 282 277 273 81 36 336 290 276 289 312 16 89 93 3 3 329 292 273 270 271 263 255 256 261 254 242 253 259 265 266 54 65 20 26 44 35 33 11 349 359 359 350 353 351 349 360 353
276 356 77 96 166 185 244 215 180 220 223 200 40 175 165 196 206 188 181 196 207 207 208 212 219 223 219 210 195 201 208 205 208 223 217 196 155 87 92 148 225 240 263 281 105 116 268 270 268 273 338 123 148 162 180 247 278 259 235 260 272 276 280 280 286 281 256 245 240 252 254 190 54 11 28 52 45 39 24 6 0 356 0 2 357 1 13 12
323 307 100 108 178 209 237 217 202 215 208 205 222 204 195 219 223 209 200 199 194 203 208 205 211 217 202 203 213 207 200 202 205 195 214 209 140 91 85 175 232 238 282 7 39 107 250 255 272 264 226 192 198 196 188 197 242 253 245 310 294 290 280 273 279 274 260 245 234 249 253 153 59 360 39 54 50 44 33 21 8 6 8 6 10 19 21 23
296 241 159 135 175 208 238 255 251 232 210 210 219 217 209 204 215 228 227 210 201 220 222 200 196 199 180 192 211 199 195 228 226 178 199 199 142 122 124 164 238 241 61 29 349 302 279 273 263 271 268 248 242 237 219 224 235 240 247 270 281 286 280 277 266 247 245 226 224 250 263 126 124 90 55 49 44 41 37 32 29 28 23 15 18 29 32 32
298 238 186 166 171 209 239 264 271 262 230 214 217 220 218 207 188 195 228 227 206 216 230 194 183 197 191 195 207 198 194 222 242 188 200 196 158 144 140 148 205 143 89 69 276 270 274 245 249 273 289 306 334 10 11 326 264 242 237 235 252 294 312 308 284 271 292 277 229 229 125 138 147 116 69 47 35 38 36 35 38 34 29 27 24 30 48 51
294 307 259 181 176 206 220 221 233 244 238 224 215 203 216 221 193 171 201 227 207 206 219 209 197 202 195 197 211 205 191 202 214 203 206 202 166 139 142 173 172 136 135 177 219 244 252 213 201 239 265 296 328 350 355 310 279 271 264 257 264 277 275 275 264 265 303 288 250 93 95 161 146 113 79 48 35 36 33 32 35 31 29 36 33 32 49 61
298 334 19 335 270 212 216 217 219 235 235 226 223 209 217 221 210 197 194 189 192 206 211 206 209 212 205 200 211 207 190 201 208 199 200 197 179 162 165 187 177 161 185 202 180 234 266 221 167 226 253 269 293 296 285 283 284 283 280 279 286 284 269 258 240 229 257 262 221 57 42 154 121 94 66 46 34 36 37 30 25 26 32 38 34 29 38 48
310 303 102 270 282 273 275 285 251 246 235 222 227 225 222 219 212 207 196 187 194 204 215 216 209 211 211 205 212 209 194 205 208 191 194 199 197 197 187 182 176 180 201 202 156 215 275 229 148 252 259 242 256 273 258 255 257 262 280 288 292 302 303 282 246 197 162 154 141 132 133 115 84 59 56 54 39 40 42 27 12 16 33 42 40 34 31 36
334 325 18 274 263 272 276 259 242 242 223 208 225 221 223 230 218 196 194 220 211 192 203 221 216 209 210 208 216 219 206 215 221 193 195 203 200 207 217 206 185 190 204 201 157 179 263 213 153 253 257 218 211 254 246 246 252 246 244 251 248 240 112 125 122 125 147 156 157 171 165 136 87 53 60 61 50 47 47 30 6 0 25 49 55 50 36 32
336 325 330 292 266 236 246 235 232 243 220 203 215 211 216 226 222 208 211 227 241 219 202 222 224 207 204 213 221 225 213 215 229 203 193 205 207 203 212 221 206 197 196 195 184 194 232 209 166 232 254 198 161 245 251 242 251 247 237 229 223 220 215 140 114 117 284 203 180 205 197 144 114 88 73 55 44 42 42 31 356 340 24 58 66 62 48 37
319 275 262 280 274 197 233 232 216 232 234 218 216 219 229 226 206 255 238 214 239 252 235 244 241 210 199 212 219 228 222 208 226 226 186 205 217 203 204 205 206 213 197 185 201 217 235 240 193 226 264 187 132 267 267 243 247 246 234 228 226 236 258 195 133 166 289 215 217 242 118 110 114 113 103 77 57 43 42 33 342 332 29 64 68 67 61 52
Height
808 807 806 805 804 803 802 801 801 800 799 799 798 798 797 797 796 796 795 794 794 793 793 792 791 791 790 788 787 786 785 784 785 785 783 780 779 779 779 780 780 781 783 784 785 785 784 784 784 784 783 781 780 780 779 778 777 782 789 793 794 797 799 796 794 796 802 800 797 798 796 800 806 803 798 797 800 802 803 802 799 798 797 798 801 806 810 814
808 807 806 805 804 803 802 802 801 800 800 799 798 798 797 797 796 795 795 794 794 793 792 791 790 790 789 788 787 786 784 784 785 783 781 779 778 778 778 779 780 782 783 784 784 783 783 783 782 782 782 781 780 780 782 779 779 786 789 792 795 796 795 792 791 792 795 797 797 797 795 797 801 801 798 803 809 805 807 806 802 804 804 803 805 808 812 814
808 807 806 805 804 803 803 802 801 800 800 799 798 798 797 797 796 795 795 794 793 793 792 791 790 789 788 788 786 785 785 784 783 781 779 778 778 778 778 779 780 782 783 784 783 782 782 781 781 781 782 783 780 780 784 781 781 785 788 795 797 792 791 789 791 792 792 794 797 798 796 797 797 796 798 803 808 807 808 806 804 809 808 807 807 808 812 814
808 807 806 805 804 803 803 802 801 800 799 799 798 798 797 796 796 795 794 793 793 792 792 790 790 789 788 787 786 785 785 785 783 779 779 778 778 778 779 780 781 783 784 784 784 783 782 781 780 780 784 785 781 781 784 782 783 785 787 796 794 789 791 791 791 792 791 792 795 797 797 799 795 793 797 802 808 810 806 800 800 805 806 806 807 807 810 813
808 807 806 805 804 804 803 802 801 800 799 799 798 797 797 796 795 794 793 793 792 791 791 790 789 788 787 786 785 784 786 789 783 778 779 779 778 779 779 781 782 783 784 785 784 784 783 780 780 782 785 786 783 783 785 780 781 787 788 791 789 788 793 792 789 791 791 791 794 797 799 799 795 795 798 800 809 809 800 795 794 797 801 803 805 806 809 812
808 807 806 805 804 804 803 802 801 800 799 798 798 797 796 795 794 793 793 792 791 791 790 789 788 787 787 785 784 784 786 789 782 778 781 779 779 780 780 782 782 784 784 785 783 783 783 781 783 787 786 786 785 785 784 779 780 789 789 787 788 789 793 791 789 791 791 793 796 796 794 794 797 800 797 798 805 801 792 790 791 794 798 801 803 806 808 811
809 807 806 805 804 804 802 802 801 800 799 798 797 796 795 794 793 793 792 791 791 790 789 789 788 787 786 784 785 783 781 783 779 779 781 779 781 780 781 782 782 784 784 783 783 782 782 783 786 785 786 787 787 786 783 781 782 790 792 789 789 789 791 790 788 789 790 793 793 790 793 796 802 803 798 799 800 795 791 789 790 794 797 801 804 806 808 810
809 808 806 805 804 803 802 802 801 800 799 798 797 796 795 794 792 792 790 790 790 789 789 788 787 786 785 785 784 780 779 781 780 780 780 780 781 781 782 783 783 784 783 783 782 781 782 785 785 782 788 788 785 786 783 783 786 789 793 791 788 788 789 788 788 789 790 792 790 791 799 801 800 800 800 801 798 793 792 790 791 795 798 802 805 806 808 810
809 808 806 805 804 803 802 801 800 800 798 797 796 795 794 793 792 791 790 789 789 789 788 787 787 786 785 784 781 780 783 782 780 781 780 781 781 781 783 783 784 784 783 783 781 782 783 784 782 781 787 786 784 786 782 788 792 788 789 790 790 789 787 788 790 791 792 793 792 796 803 805 802 802 804 802 797 793 791 792 794 796 800 803 805 807 808 809
809 808 806 805 804 803 802 801 800 799 798 797 795 794 793 792 791 790 789 789 788 788 787 787 787 785 786 784 780 784 784 781 781 781 781 782 782 782 783 783 784 783 782 783 782 782 781 781 779 778 783 784 784 785 784 788 789 784 786 789 791 791 788 789 792 792 793 794 794 800 808 810 808 810 812 804 795 793 793 796 796 798 802 803 804 806 807 809
809 808 807 805 804 803 801 800 799 798 797 795 794 793 791 790 789 788 788 788 787 787 787 787 786 785 786 783 781 784 782 781 782 782 781 782 782 783 783 783 783 783 782 782 782 782 780 780 777 778 784 784 784 786 784 783 782 782 785 790 792 791 790 790 793 793 795 800 799 803 811 813 813 815 815 805 795 793 795 798 798 800 802 802 804 807 808 809
809 808 806 805 804 802 801 800 799 797 796 794 793 791 790 789 788 787 787 787 787 787 786 787 786 786 786 783 781 782 781 782 782 782 782 782 783 783 782 783 783 783 782 781 782 782 782 781 778 783 785 782 785 790 787 779 780 783 785 795 797 792 795 794 794 794 796 804 801 803 816 821 819 817 813 804 796 794 795 799 799 800 802 803 804 807 808 809
809 807 806 805 803 802 801 799 798 797 795 793 792 790 789 788 787 787 787 787 787 786 786 786 786 786 786 783 780 781 781 781 782 781 782 782 783 783 782 783 783 783 783 781 782 782 783 782 781 782 780 781 786 786 783 777 781 786 785 793 797 797 803 798 794 795 797 803 800 805 825 829 820 813 808 802 796 797 799 799 799 801 802 803 804 807 809 809
809 807 806 804 802 801 800 798 798 796 794 793 791 790 789 788 787 787 786 787 786 786 786 786 786 786 785 782 780 781 781 781 781 781 782 783 782 783 783 783 783 784 784 782 783 783 783 782 781 781 779 781 781 780 783 783 784 787 788 791 793 803 812 801 793 797 802 805 799 805 824 827 817 810 804 798 797 798 801 800 799 801 802 804 805 806 809 809
808 807 805 804 802 801 799 798 797 795 794 792 790 790 789 788 787 787 787 787 786 786 786 785 785 785 783 781 780 780 780 780 781 781 781 782 781 781 782 783 784 784 784 783 783 783 783 782 782 783 781 778 780 785 790 788 784 784 793 800 796 803 812 803 794 796 804 806 800 806 823 825 816 810 803 798 798 799 801 801 799 800 802 804 805 806 808 809
808 807 805 803 802 800 799 797 796 795 793 791 790 790 788 788 787 787 787 786 786 786 786 786 785 784 784 784 781 779 780 779 779 781 781 781 781 780 782 784 784 784 784 783 783 783 782 781 781 780 782 783 785 790 793 794 791 784 790 803 801 801 806 804 798 794 797 804 802 807 821 823 815 809 804 799 800 801 801 801 800 801 802 803 805 805 806 808
808 806 804 803 801 800 798 797 796 794 793 791 790 789 788 788 787 787 787 786 787 786 786 786 784 783 783 781 781 781 778 778 780 780 780 781 781 781 782 782 782 783 783 783 783 782 781 782 783 782 783 786 787 792 803 804 796 787 788 798 800 799 801 804 806 797 793 800 802 802 809 815 812 804 802 800 800 803 803 802 801 801 802 802 803 805 806 807
808 806 804 803 801 800 798 797 796 794 793 791 790 790 789 788 788 787 787 786 786 786 787 785 783 789 790 782 781 781 778 779 780 780 780 781 780 781 781 780 780 782 783 784 784 782 782 782 783 788 788 790 792 796 806 803 795 795 797 800 800 801 801 803 809 803 795 799 801 801 802 807 807 801 800 800 799 802 802 801 801 800 801 802 802 804 805 807
807 805 804 802 801 799 798 797 795 794 792 791 790 789 788 787 787 787 787 787 786 788 790 785 783 791 792 783 779 778 777 779 779 779 779 779 780 781 779 779 779 781 786 789 787 784 783 786 790 795 794 793 794 792 796 797 794 796 798 801 802 806 807 800 801 799 795 801 802 802 803 802 804 801 799 798 797 801 801 800 801 801 801 802 803 803 804 806
806 805 803 802 800 799 798 796 795 794 792 791 790 789 789 789 788 788 785 783 782 783 784 782 780 784 783 779 777 777 778 779 778 777 779 779 779 779 778 779 780 783 787 788 790 784 784 793 797 794 791 788 789 790 792 793 792 792 794 798 798 804 807 797 797 796 794 803 803 800 804 802 802 801 797 797 797 800 801 801 803 802 803 802 803 802 803 805
806 805 803 801 800 798 797 796 795 794 793 791 790 789 790 791 792 792 787 783 779 778 780 779 779 781 779 778 777 777 778 779 777 775 779 779 777 781 781 781 786 790 787 786 788 786 789 798 794 787 787 787 788 790 792 793 793 793 792 795 796 798 800 796 797 797 796 804 803 799 804 803 800 799 797 795 798 800 799 801 802 801 802 801 801 802 802 803
805 804 802 800 799 797 797 795 795 794 793 792 790 789 789 791 792 791 790 788 781 778 780 778 779 779 776 777 777 777 779 781 781 777 777 778 777 782 783 782 788 790 787 789 791 793 798 797 787 783 786 788 790 789 791 793 792 793 791 793 795 792 796 799 799 796 797 804 803 799 803 800 796 797 797 795 796 796 794 796 798 799 801 801 801 802 802 802
805 802 801 800 798 797 796 795 795 794 793 792 790 789 790 791 790 789 790 791 786 780 778 779 780 779 777 778 777 777 780 782 784 779 776 778 778 780 781 784 788 788 790 792 793 797 800 791 781 781 785 790 793 791 792 794 792 791 790 792 792 789 796 805 804 801 799 800 800 801 803 797 793 795 796 794 793 792 792 793 795 795 798 799 799 799 801 803
804 801 801 798 797 797 794 794 794 793 793 792 791 791 791 791 790 790 789 788 788 782 777 778 777 777 779 778 776 778 780 779 780 779 775 777 779 779 780 783 787 789 790 790 791 794 793 785 780 782 787 790 794 793 794 796 794 788 787 789 790 789 793 798 801 800 799 800 799 799 802 795 791 798 798 793 792 793 793 794 796 796 795 796 796 797 799 800
803 801 800 797 797 795 794 794 793 793 793 790 791 791 790 790 788 790 791 790 792 785 778 778 777 777 777 776 777 776 778 779 777 776 774 774 778 780 782 781 784 790 790 790 791 790 788 784 783 787 790 790 793 794 793 794 794 789 784 783 785 789 791 793 798 797 800 807 800 796 808 805 791 793 794 791 795 797 795 795 797 797 795 796 797 796 797 797
802 800 798 797 796 794 794 792 791 793 791 789 791 790 789 790 787 789 791 793 795 790 783 782 781 781 777 777 776 773 783 785 775 773 774 775 774 777 784 783 783 789 790 788 787 786 786 785 785 789 791 791 795 794 788 789 796 794 781 776 781 787 791 794 797 798 800 804 797 793 811 815 796 790 788 789 798 801 797 798 797 796 796 795 795 795 795 795
801 799 798 796 795 794 793 791 791 792 790 789 790 789 789 788 787 789 793 802 804 793 787 783 781 781 778 777 774 779 794 788 776 775 774 776 774 774 784 787 784 787 784 787 793 789 786 788 790 789 790 792 794 792 785 786 795 793 778 776 784 787 791 793 794 797 796 796 794 790 802 811 800 791 786 786 797 802 799 800 797 795 795 794 792 792 792 793
800 798 797 795 794 794 792 792 792 789 788 790 788 789 789 786 788 788 798 818 812 789 784 782 778 778 775 774 774 780 787 781 783 784 772 774 777 775 784 786 785 786 781 789 799 790 783 789 791 790 791 791 788 785 781 784 791 787 777 777 782 785 790 791 792 796 795 801 805 793 796 810 805 796 791 788 795 801 801 801 799 795 793 792 791 789 789 790
799 797 795 794 793 792 792 792 791 789 789 789 788 790 787 786 789 789 801 819 805 784 783 782 779 779 776 777 779 780 779 778 786 782 771 775 776 775 783 783 783 786 782 786 792 786 783 785 784 786 790 788 784 781 780 784 787 781 777 779 781 785 789 791 796 799 802 813 813 796 795 810 814 808 804 801 800 800 799 798 797 795 792 790 789 788 787 787
798 796 794 793 792 792 792 791 789 789 789 788 789 788 787 788 791 801 816 815 797 786 783 780 782 782 780 783 784 783 782 781 780 777 776 778 775 776 779 778 780 785 784 784 786 784 782 780 781 783 786 784 783 782 782 781 780 779 782 786 789 791 792 794 796 799 812 821 811 796 793 804 818 816 805 805 803 795 794 794 792 792 791 788 786 786 786 785
796 794 792 791 791 791 791 789 787 788 788 789 789 787 788 791 793 810 821 803 790 790 784 782 785 782 783 788 787 784 784 783 780 780 782 780 779 781 781 782 784 786 787 787 786 784 783 784 783 781 780 780 781 784 783 778 777 782 785 790 800 803 801 803 802 807 823 828 813 797 789 798 820 823 807 801 796 789 792 793 790 791 789 785 783 783 783 782
794 792 790 789 789 789 789 787 786 787 788 788 788 786 791 801 804 808 805 793 795 795 786 787 787 784 786 788 787 786 785 786 783 782 783 783 784 785 787 788 788 794 796 791 790 788 785 784 781 780 779 778 782 786 788 785 783 785 788 796 810 816 820 822 819 819 821 819 810 798 795 806 818 815 804 798 792 787 789 788 785 786 784 783 784 782 781 781
791 789 787 786 786 786 786 787 786 788 787 787 788 786 794 812 812 799 791 792 797 791 784 788 786 785 788 787 789 787 785 788 786 784 785 784 786 788 789 787 785 794 797 792 792 792 790 786 781 783 783 777 779 786 792 793 790 789 791 799 808 814 829 834 822 819 818 811 801 794 802 813 810 803 797 792 790 786 784 782 782 781 778 779 782 780 778 779
788 786 785 784 784 784 784 786 786 787 787 787 788 791 804 816 806 793 790 790 789 785 785 788 787 787 788 787 788 786 787 792 786 786 788 786 789 790 789 788 785 787 790 791 793 793 800 801 790 788 786 779 780 782 783 784 786 785 780 787 796 797 811 819 810 810 813 807 801 801 809 812 809 805 794 785 785 783 782 781 780 777 770 772 778 778 777 779
786 784 783 782 782 782 783 785 785 786 787 786 789 798 810 809 795 790 790 785 784 786 785 785 787 789 789 788 787 784 787 792 787 787 789 788 791 793 791 791 788 787 790 795 796 793 801 803 789 784 783 780 782 779 775 780 785 780 773 784 794 785 786 799 800 797 799 806 808 806 805 800 799 800 790 785 785 783 784 782 779 777 770 769 776 779 779 780
784 782 781 781 781 781 782 784 784 785 785 785 795 802 799 792 786 784 784 782 784 786 786 788 788 789 791 790 790 787 785 787 788 789 791 791 792 793 793 792 790 789 791 795 797 795 800 799 787 783 783 780 782 779 775 782 786 781 782 789 785 774 778 795 805 799 802 818 815 801 800 801 803 802 792 788 789 786 788 787 783 782 777 773 776 781 783 783
783 782 780 780 781 781 781 782 784 785 783 786 797 798 787 781 780 779 780 782 783 783 786 792 790 789 792 790 790 789 786 787 789 790 793 794 795 794 793 792 790 789 788 791 794 794 797 797 788 786 789 781 776 777 775 775 778 783 787 782 775 779 783 792 809 813 816 825 812 797 805 811 813 812 799 791 795 795 792 791 789 787 785 782 779 781 784 785
783 781 779 779 780 780 780 782 784 783 783 789 796 792 783 781 779 777 779 780 782 783 787 790 789 788 790 790 789 787 787 791 791 791 793 795 796 794 792 793 791 789 786 787 791 791 794 800 792 784 789 782 773 780 783 774 772 778 779 772 779 798 799 798 811 818 821 824 810 798 801 803 805 810 806 801 802 801 797 795 794 792 792 791 787 785 784 785
782 779 778 779 779 778 780 782 782 781 785 793 795 788 782 780 778 776 777 779 781 784 786 785 786 787 788 787 786 786 788 790 789 791 794 796 798 794 789 792 791 789 786 785 790 791 791 803 799 783 783 783 776 782 789 784 776 775 775 773 778 790 795 796 800 804 814 820 813 806 804 805 809 809 808 807 803 802 802 798 796 797 796 795 793 791 788 786
780 778 778 778 778 778 779 781 782 784 788 790 786 782 780 779 778 775 775 777 779 781 783 783 784 788 788 785 784 785 788 788 787 790 792 792 796 795 790 790 791 789 787 785 789 791 791 801 803 787 781 785 787 788 790 790 787 784 785 786 785 785 788 792 792 792 805 815 818 819 811 806 809 805 804 805 801 801 802 798 798 800 798 795 794 793 791 788
780 779 779 778 778 778 780 783 784 784 786 785 781 781 780 778 777 776 774 776 777 777 778 780 782 783 785 786 785 784 787 789 787 789 791 790 793 796 791 789 790 790 789 788 789 792 794 799 802 795 787 787 792 791 788 790 790 788 789 789 787 788 793 805 807 794 793 803 811 818 815 807 804 800 799 801 799 800 800 797 800 803 800 797 795 793 792 791
780 780 780 779 779 779 781 784 783 782 784 782 779 779 779 778 777 777 776 776 778 777 776 779 781 781 782 782 783 783 785 788 789 789 790 788 788 792 791 790 790 788 789 791 791 791 793 797 801 800 792 788 791 790 787 789 787 785 787 785 785 787 791 807 814 801 794 797 797 804 812 811 804 799 798 799 798 799 800 799 801 802 800 798 796 794 792 792
780 780 779 780 779 779 782 785 783 784 783 778 776 776 777 778 778 777 777 777 778 778 779 780 779 780 780 779 781 784 784 788 791 789 789 790 787 788 789 789 790 788 788 792 793 792 794 799 804 803 796 791 789 786 785 787 788 788 788 785 787 788 787 792 796 794 796 797 797 808 816 813 807 804 800 798 799 801 801 800 801 801 800 799 797 795 794 793
782 780 778 779 780 780 783 785 784 785 781 777 779 779 776 776 777 777 777 776 776 777 779 779 777 778 779 777 780 782 783 791 794 789 789 791 789 788 788 788 789 788 788 791 792 793 798 802 806 810 810 807 803 800 797 794 792 792 790 790 790 789 789 790 788 794 801 797 796 808 816 815 812 807 802 799 800 803 803 801 800 800 800 799 798 796 796 795
784 782 778 778 778 779 780 778 777 779 778 779 782 780 777 777 775 773 775 774 772 773 775 775 773 774 776 778 781 781 782 788 792 790 790 790 789 789 788 789 789 787 788 791 789 789 797 802 804 812 817 817 817 816 808 800 795 793 793 795 794 791 792 795 797 805 809 803 800 803 812 820 816 808 807 805 804 806 805 802 801 800 801 800 798 797 797 796
784 783 781 778 776 778 778 774 775 778 777 780 783 779 778 779 774 771 773 774 772 771 773 773 772 774 778 780 783 785 783 784 787 790 791 790 789 789 788 789 789 788 791 794 790 789 797 801 802 808 810 808 808 807 800 795 797 799 798 797 796 795 795 799 807 812 810 811 810 803 806 819 819 813 814 812 809 809 807 804 804 804 804 803 801 799 798 798
786 785 783 782 781 780 778 775 776 778 775 777 780 778 778 778 775 774 775 774 771 771 773 774 773 777 781 781 784 786 785 785 787 789 789 788 787 788 788 788 789 791 794 794 790 792 800 803 801 804 805 800 799 799 795 796 800 801 801 799 797 797 798 804 812 815 819 828 825 809 805 813 816 816 817 816 813 812 810 809 809 808 807 806 804 802 801 800
787 786 784 785 786 782 780 778 776 776 776 776 776 776 777 777 776 776 775 772 771 771 775 778 776 775 775 777 782 786 788 790 791 789 789 788 788 789 791 789 788 790 792 791 789 792 799 801 799 800 802 798 796 797 796 798 800 800 801 801 799 798 799 803 807 807 815 829 827 817 814 814 813 815 819 820 818 816 815 814 811 810 809 808 807 806 805 805
786 786 783 785 786 782 779 778 778 779 778 777 777 777 778 777 775 774 771 773 775 771 773 779 778 772 770 771 777 784 788 792 794 791 789 789 790 790 793 793 790 787 787 790 791 792 797 801 799 800 803 799 798 798 797 798 802 803 803 802 800 800 799 800 803 802 808 817 818 816 818 818 816 817 819 821 820 817 816 816 814 814 812 811 810 810 810 810
790 790 787 787 785 781 779 778 780 781 778 778 781 777 775 775 774 772 770 773 777 773 771 775 773 768 768 770 774 781 781 782 786 787 787 789 791 790 791 792 789 787 787 790 792 793 798 803 802 801 804 802 799 799 798 799 802 804 805 803 800 801 802 802 804 806 809 814 814 813 817 819 817 816 817 819 819 817 817 818 820 820 816 812 812 812 814 815
796 795 793 792 787 782 782 779 779 781 779 778 779 776 774 774 772 772 772 768 769 771 770 771 769 766 769 772 774 776 772 771 775 776 777 782 785 785 786 785 785 789 791 792 793 794 797 802 801 803 808 805 799 801 801 798 800 803 804 803 800 802 804 804 805 806 807 811 815 815 816 817 815 814 817 819 819 820 820 821 825 825 819 815 814 814 817 818
797 796 794 794 789 783 782 779 779 783 780 775 775 774 774 773 770 774 776 769 765 767 766 767 767 767 773 777 774 769 764 765 768 767 767 771 773 774 778 779 780 785 789 792 795 794 795 799 799 803 810 806 800 802 801 800 809 813 805 800 799 801 803 803 805 805 804 808 814 812 810 811 813 814 819 822 823 824 824 825 828 828 822 817 815 814 816 817